Helicity
45 62 118 108 92 85 79 72 76 76 82 86 92 89 83 80 75 62 40 53 33 26 36 37 39 40 36 34 24 9 3 -33
48 59 126 123 108 99 87 80 80 74 79 85 86 82 72 75 73 62 43 45 41 50 44 43 39 40 37 34 27 13 2 6
85 20 98 136 129 122 113 92 82 89 94 94 97 79 74 76 71 63 49 49 47 51 46 53 51 47 42 40 37 40 26 46
54 132 97 123 133 144 126 102 90 91 95 110 90 65 85 72 75 63 66 62 54 66 60 62 64 57 67 67 61 36 38 72
120 147 144 142 126 164 151 125 103 98 92 105 86 79 71 65 84 92 91 86 76 97 99 87 60 51 61 96 72 53 41 140
148 103 124 133 118 160 92 103 101 104 105 105 109 88 79 109 110 145 132 120 98 83 96 88 60 52 33 121 71 54 63 128
108 89 12 62 91 104 106 62 114 87 107 106 99 103 93 93 109 115 148 115 133 101 95 93 84 80 52 77 87 91 102 110
107 94 48 44 83 78 102 140 120 81 98 121 110 91 98 94 113 85 144 155 135 121 101 91 110 106 105 96 78 100 105 121
227 222 158 81 52 88 107 146 108 109 86 109 112 102 81 125 137 103 101 163 175 134 104 135 112 114 107 112 110 106 113 105
287 250 213 220 251 114 103 111 152 128 158 130 95 99 90 148 175 142 139 129 210 171 163 156 100 130 128 121 142 127 110 107
244 205 186 199 172 183 167 118 104 129 141 151 145 85 135 138 176 147 136 190 246 200 189 168 139 168 132 128 143 137 115 128
142 150 166 182 173 165 118 96 98 92 108 135 152 142 110 187 180 223 190 191 205 244 230 195 200 190 123 126 166 151 126 161
158 122 108 111 162 217 267 238 199 143 126 118 140 167 153 151 213 281 280 242 166 192 261 263 242 189 197 192 190 156 152 166
143 168 150 124 124 149 165 177 173 204 240 237 139 153 197 213 208 270 295 299 216 155 288 370 304 205 250 291 193 150 165 161
115 126 136 121 106 98 107 139 169 197 151 160 208 200 186 232 232 280 343 324 312 229 236 340 357 274 239 285 239 194 183 127
76 80 84 91 95 91 103 82 81 120 164 245 291 154 142 186 221 268 338 354 278 247 243 288 324 304 283 212 219 183 184 129
65 64 59 62 66 64 60 72 72 74 90 142 165 243 289 199 257 232 299 278 266 269 248 269 301 334 347 309 206 175 194 219
29 33 44 45 46 52 46 37 46 54 58 60 88 97 219 240 291 293 289 242 208 264 248 265 253 315 331 326 253 263 226 281
43 48 40 39 32 34 47 52 55 58 72 72 52 58 112 196 184 235 345 321 256 233 269 269 242 269 366 336 295 224 251 223
10 22 23 40 46 46 47 50 52 76 92 99 93 80 74 166 289 190 196 220 177 198 204 295 271 251 278 340 313 180 180 177
Wind_Speed
9 10 13 12 10 7 4 3 2 3 4 4 4 4 6 7 7 6 5 8 12 14 14 14 13 13 14 14 14 10 8 4
14 11 14 16 14 12 9 7 4 4 3 3 3 2 3 4 3 2 2 6 8 11 12 12 12 13 15 16 15 14 11 16
23 13 13 17 18 18 15 13 10 6 5 5 6 7 4 2 1 1 1 4 7 11 11 12 12 12 15 19 21 20 18 26
23 20 16 18 20 20 21 19 17 14 12 8 8 8 5 5 5 5 3 5 8 11 12 12 13 14 14 18 24 23 19 26
21 24 28 27 26 22 24 23 20 18 15 13 13 12 10 5 7 5 9 8 14 13 15 14 11 11 11 15 20 21 21 26
23 27 28 33 36 29 24 25 23 21 20 18 17 18 14 14 12 9 10 11 12 13 13 11 8 7 9 11 16 18 24 33
37 28 25 25 33 36 33 28 25 24 21 20 21 19 21 18 18 15 11 10 10 13 15 11 8 6 12 20 22 29 40 39
35 38 28 23 31 35 35 35 32 29 32 29 23 23 22 24 21 20 17 14 12 12 15 15 16 16 13 21 27 36 34 36
41 47 45 53 31 43 48 46 40 33 31 32 35 28 31 25 24 22 26 21 16 16 17 16 16 17 19 22 26 31 31 31
46 49 55 58 55 47 41 49 52 46 38 35 31 35 35 38 35 31 30 27 21 19 19 21 21 18 20 21 25 28 28 24
51 51 54 58 60 59 58 56 50 53 47 44 40 37 37 42 39 37 37 40 29 24 22 21 22 21 21 22 26 29 28 23
46 50 53 57 61 64 66 66 62 53 53 50 47 43 42 41 46 39 35 43 41 37 27 25 24 22 22 20 18 25 29 24
50 52 53 56 58 63 65 64 68 63 58 60 55 50 48 50 49 48 42 42 43 45 37 35 33 26 30 31 30 33 31 26
51 54 56 58 59 64 68 73 74 77 78 76 59 59 53 54 53 52 49 50 47 46 43 39 38 32 36 32 39 39 37 32
53 56 59 60 61 64 66 70 73 76 74 77 71 65 65 63 61 61 59 59 58 54 50 46 44 40 36 37 40 40 38 35
57 59 62 63 66 69 71 74 77 76 82 83 83 79 70 67 64 64 65 63 66 63 58 52 48 48 44 42 40 36 38 43
60 64 66 68 70 71 75 78 79 83 86 92 93 89 85 66 62 63 65 66 67 64 63 58 54 52 50 46 46 46 47 48
64 68 72 74 76 77 79 83 86 89 89 93 96 96 92 82 63 63 63 62 66 63 64 63 61 56 53 50 47 45 44 47
69 72 76 78 81 82 84 88 91 95 95 95 97 100 99 97 82 68 68 63 65 65 65 66 64 60 54 52 51 51 50 52
75 79 83 85 86 88 88 90 90 92 94 96 98 98 99 99 92 77 75 64 63 70 68 66 68 65 60 54 50 51 48 51
Wind_Direction
318 283 253 244 235 231 253 300 1 45 64 79 82 88 98 105 113 103 73 21 359 1 6 9 12 10 6 4 6 18 20 33
304 296 254 250 251 243 245 263 290 320 347 354 345 42 93 102 110 96 59 358 358 354 358 2 4 2 351 346 349 349 346 342
291 276 256 249 254 255 256 263 275 284 307 321 324 322 319 317 254 221 276 336 341 341 347 347 351 350 341 332 329 332 337 336
286 277 262 252 257 256 258 264 273 281 290 296 303 303 305 294 285 265 276 307 325 334 336 336 337 340 336 324 321 323 334 330
280 273 271 268 263 256 258 260 266 271 273 280 284 291 296 279 296 268 299 296 313 317 321 323 328 329 331 331 322 316 323 329
287 277 269 262 262 268 258 255 255 266 267 267 278 282 280 290 293 279 288 302 291 304 310 312 310 307 316 318 323 321 318 320
295 291 271 262 255 264 264 259 251 267 260 257 261 271 279 280 284 290 280 287 292 288 295 302 305 304 311 319 313 312 308 312
302 299 290 269 261 263 267 271 264 260 269 273 250 266 271 277 277 280 282 276 286 288 289 288 302 313 309 310 309 310 313 312
309 296 301 290 289 276 273 277 269 263 262 263 273 260 269 270 276 273 284 280 272 285 289 298 297 303 309 312 311 310 312 315
308 301 294 290 293 286 281 276 278 268 267 265 258 266 261 275 270 278 288 278 273 279 280 282 292 298 308 311 313 312 311 313
304 303 296 294 290 287 285 282 278 275 269 270 260 259 261 266 270 268 271 284 279 278 274 276 277 287 300 310 312 312 311 313
309 306 301 297 292 287 283 280 279 276 273 269 268 260 257 261 268 267 263 270 274 282 274 275 278 277 290 299 307 313 313 315
311 307 306 302 296 292 288 284 282 278 273 272 269 266 258 258 263 266 263 262 264 267 276 273 275 278 288 295 305 307 308 311
313 311 309 306 302 297 291 287 282 281 280 281 265 269 262 256 258 261 262 264 261 263 266 273 272 269 281 289 296 299 299 303
315 314 311 309 307 303 298 294 289 284 282 279 278 271 267 260 260 260 263 264 263 260 258 262 265 266 266 284 293 296 305 307
317 315 313 310 307 302 299 295 290 287 284 282 281 279 268 265 259 260 259 262 262 259 260 258 262 264 262 263 281 300 300 306
318 314 312 310 308 305 300 295 292 289 286 282 278 278 278 264 258 258 257 259 260 257 256 256 257 261 261 262 263 275 285 292
317 314 311 309 308 304 301 297 294 290 287 283 279 276 276 276 256 254 257 256 259 256 256 255 254 257 261 260 262 263 271 279
317 315 312 311 307 304 302 298 295 290 288 285 281 277 274 272 270 260 254 254 257 257 255 254 251 253 255 258 262 265 274 273
317 315 311 310 308 305 303 301 299 294 291 287 282 278 274 273 274 263 257 252 255 258 259 255 251 251 252 256 259 264 266 267